Time,TemperatureF,DewpointF,PressureIn,WindDirection,WindDirectionDegrees,WindSpeedMPH,WindSpeedGustMPH,Humidity,HourlyPrecipIn,Conditions,Clouds,dailyrainin,SoftwareType,DateUTC
2013-05-12 00:05:00,63.4,63.4,29.77,WNW,302,0.0,17.0,100,0.00,,,0.00,Wunderground v.1.15,2013-05-12 04:05:00,
2013-05-12 00:10:00,63.3,63.3,29.77,WNW,302,0.0,17.0,100,0.00,,,0.01,Wunderground v.1.15,2013-05-12 04:10:00,
2013-05-12 00:15:00,63.3,63.3,29.77,WNW,302,0.0,17.0,100,0.00,,,0.01,Wunderground v.1.15,2013-05-12 04:15:00,
2013-05-12 00:20:00,63.3,63.3,29.77,WNW,302,0.0,17.0,100,0.00,,,0.01,Wunderground v.1.15,2013-05-12 04:20:00,
2013-05-12 00:25:00,63.1,63.1,29.77,WNW,302,0.0,17.0,100,0.00,,,0.01,Wunderground v.1.15,2013-05-12 04:25:00,
2013-05-12 00:30:00,62.7,62.7,29.77,WNW,302,0.0,17.0,100,0.00,,,0.01,Wunderground v.1.15,2013-05-12 04:30:00,
2013-05-12 00:35:00,62.6,62.6,29.77,WNW,302,0.0,17.0,100,0.00,,,0.01,Wunderground v.1.15,2013-05-12 04:35:00,
2013-05-12 00:40:00,62.3,62.3,29.77,WNW,302,0.0,17.0,100,0.00,,,0.01,Wunderground v.1.15,2013-05-12 04:40:00,
2013-05-12 00:45:00,62.2,62.2,29.77,WNW,302,0.0,17.0,100,0.00,,,0.01,Wunderground v.1.15,2013-05-12 04:45:00,
2013-05-12 00:55:00,62.1,61.8,29.77,WNW,302,0.0,17.0,99,0.00,,,0.01,Wunderground v.1.15,2013-05-12 04:55:00,
2013-05-12 01:00:00,61.9,61.6,29.77,WNW,302,0.0,17.0,99,0.00,,,0.01,Wunderground v.1.15,2013-05-12 05:00:00,
2013-05-12 01:05:00,61.8,61.5,29.77,WNW,302,0.0,17.0,99,0.00,,,0.01,Wunderground v.1.15,2013-05-12 05:05:00,
2013-05-12 01:10:00,61.8,61.2,29.77,WNW,302,0.0,17.0,98,0.00,,,0.01,Wunderground v.1.15,2013-05-12 05:10:00,
2013-05-12 01:15:00,61.7,61.1,29.78,WNW,302,0.0,17.0,98,0.00,,,0.01,Wunderground v.1.15,2013-05-12 05:15:00,
2013-05-12 01:25:00,61.5,60.6,29.78,WNW,302,1.0,17.0,97,0.00,,,0.01,Wunderground v.1.15,2013-05-12 05:25:00,
2013-05-12 01:30:00,61.5,60.6,29.78,WNW,302,0.0,17.0,97,0.00,,,0.01,Wunderground v.1.15,2013-05-12 05:30:00,
2013-05-12 01:35:00,61.4,60.5,29.77,WNW,302,0.0,17.0,97,0.00,,,0.01,Wunderground v.1.15,2013-05-12 05:35:00,
2013-05-12 01:40:00,61.4,60.5,29.77,WNW,302,0.0,17.0,97,0.00,,,0.01,Wunderground v.1.15,2013-05-12 05:40:00,
2013-05-12 01:45:00,61.3,60.4,29.77,WNW,302,0.0,17.0,97,0.00,,,0.01,Wunderground v.1.15,2013-05-12 05:45:00,
2013-05-12 01:55:00,61.1,60.2,29.77,WNW,302,0.0,17.0,97,0.00,,,0.01,Wunderground v.1.15,2013-05-12 05:55:00,
2013-05-12 02:00:00,61.0,60.1,29.77,WNW,302,0.0,17.0,97,0.00,,,0.01,Wunderground v.1.15,2013-05-12 06:00:00,
2013-05-12 02:05:00,60.9,59.8,29.77,WNW,302,0.0,17.0,96,0.00,,,0.01,Wunderground v.1.15,2013-05-12 06:05:00,
2013-05-12 02:10:00,60.9,59.8,29.78,WNW,302,0.0,17.0,96,0.00,,,0.01,Wunderground v.1.15,2013-05-12 06:10:00,
2013-05-12 02:20:00,60.9,58.9,29.77,WNW,302,1.0,17.0,93,0.00,,,0.01,Wunderground v.1.15,2013-05-12 06:20:00,
2013-05-12 02:25:00,60.8,58.8,29.77,WNW,302,0.0,17.0,93,0.00,,,0.01,Wunderground v.1.15,2013-05-12 06:25:00,
2013-05-12 02:30:00,60.7,58.4,29.77,WNW,302,0.0,17.0,92,0.00,,,0.01,Wunderground v.1.15,2013-05-12 06:30:00,
2013-05-12 02:35:00,60.5,58.2,29.77,WNW,302,0.0,17.0,92,0.00,,,0.01,Wunderground v.1.15,2013-05-12 06:35:00,
2013-05-12 02:45:00,60.3,57.7,29.76,WNW,302,0.0,17.0,91,0.00,,,0.01,Wunderground v.1.15,2013-05-12 06:45:00,
2013-05-12 02:50:00,60.2,57.6,29.77,WNW,302,1.0,1.0,91,0.00,,,0.01,Wunderground v.1.15,2013-05-12 06:50:00,
2013-05-12 02:55:00,60.1,57.5,29.77,WNW,302,1.0,17.0,91,0.00,,,0.01,Wunderground v.1.15,2013-05-12 06:55:00,
2013-05-12 03:00:00,60.1,56.8,29.77,WNW,296,1.0,1.0,89,0.00,,,0.01,Wunderground v.1.15,2013-05-12 07:00:00,
2013-05-12 03:05:00,60.1,56.5,29.77,WNW,302,2.0,2.0,88,0.00,,,0.01,Wunderground v.1.15,2013-05-12 07:05:00,
2013-05-12 03:15:00,59.9,55.7,29.76,WNW,303,2.0,17.0,86,0.00,,,0.01,Wunderground v.1.15,2013-05-12 07:15:00,
2013-05-12 03:20:00,59.8,55.3,29.77,WNW,302,3.0,17.0,85,0.00,,,0.01,Wunderground v.1.15,2013-05-12 07:20:00,
2013-05-12 03:25:00,59.8,55.3,29.77,WNW,300,2.0,17.0,85,0.00,,,0.01,Wunderground v.1.15,2013-05-12 07:25:00,
2013-05-12 03:30:00,59.6,55.1,29.77,WNW,299,1.0,17.0,85,0.00,,,0.01,Wunderground v.1.15,2013-05-12 07:30:00,
2013-05-12 03:35:00,59.5,54.7,29.77,WNW,289,2.0,17.0,84,0.00,,,0.01,Wunderground v.1.15,2013-05-12 07:35:00,
2013-05-12 03:45:00,59.6,54.8,29.77,WNW,298,2.0,17.0,84,0.00,,,0.01,Wunderground v.1.15,2013-05-12 07:45:00,
2013-05-12 03:50:00,59.5,54.3,29.77,WNW,283,1.0,1.0,83,0.00,,,0.01,Wunderground v.1.15,2013-05-12 07:50:00,
2013-05-12 03:55:00,59.5,54.3,29.77,WNW,294,1.0,17.0,83,0.00,,,0.01,Wunderground v.1.15,2013-05-12 07:55:00,
2013-05-12 04:00:00,59.4,54.2,29.77,WNW,294,1.0,1.0,83,0.00,,,0.01,Wunderground v.1.15,2013-05-12 08:00:00,
2013-05-12 04:05:00,59.3,54.1,29.78,NW,304,1.0,17.0,83,0.00,,,0.01,Wunderground v.1.15,2013-05-12 08:05:00,
2013-05-12 04:15:00,59.3,53.8,29.78,WNW,303,1.0,17.0,82,0.00,,,0.01,Wunderground v.1.15,2013-05-12 08:15:00,
2013-05-12 04:20:00,59.4,53.9,29.78,NW,308,1.0,1.0,82,0.00,,,0.01,Wunderground v.1.15,2013-05-12 08:20:00,
2013-05-12 04:25:00,59.5,53.7,29.78,NW,309,2.0,2.0,81,0.00,,,0.01,Wunderground v.1.15,2013-05-12 08:25:00,
2013-05-12 04:30:00,59.5,53.7,29.78,NW,309,1.0,1.0,81,0.00,,,0.01,Wunderground v.1.15,2013-05-12 08:30:00,
2013-05-12 04:40:00,59.2,53.7,29.78,WNW,296,0.0,17.0,82,0.00,,,0.01,Wunderground v.1.15,2013-05-12 08:40:00,
2013-05-12 04:45:00,59.0,53.5,29.78,WNW,296,0.0,17.0,82,0.00,,,0.01,Wunderground v.1.15,2013-05-12 08:45:00,
2013-05-12 04:50:00,59.0,53.2,29.78,WNW,299,0.0,17.0,81,0.00,,,0.01,Wunderground v.1.15,2013-05-12 08:50:00,
2013-05-12 04:55:00,59.0,53.2,29.79,WNW,302,1.0,17.0,81,0.00,,,0.01,Wunderground v.1.15,2013-05-12 08:55:00,
2013-05-12 05:00:00,59.0,53.5,29.79,WNW,302,1.0,1.0,82,0.00,,,0.01,Wunderground v.1.15,2013-05-12 09:00:00,
2013-05-12 05:10:00,58.7,52.9,29.79,West,279,1.0,1.0,81,0.00,,,0.01,Wunderground v.1.15,2013-05-12 09:10:00,
2013-05-12 05:15:00,58.5,52.7,29.79,WNW,285,1.0,17.0,81,0.00,,,0.01,Wunderground v.1.15,2013-05-12 09:15:00,
2013-05-12 05:20:00,58.4,52.6,29.79,WNW,285,1.0,1.0,81,0.00,,,0.01,Wunderground v.1.15,2013-05-12 09:20:00,
2013-05-12 05:25:00,58.2,52.1,29.79,WNW,288,0.0,17.0,80,0.00,,,0.01,Wunderground v.1.15,2013-05-12 09:25:00,
2013-05-12 05:35:00,57.9,51.8,29.80,NW,304,1.0,17.0,80,0.00,,,0.01,Wunderground v.1.15,2013-05-12 09:35:00,
2013-05-12 05:40:00,57.8,51.7,29.80,NW,304,0.0,17.0,80,0.00,,,0.01,Wunderground v.1.15,2013-05-12 09:40:00,
2013-05-12 05:45:00,57.6,51.5,29.80,NW,304,0.0,17.0,80,0.00,,,0.01,Wunderground v.1.15,2013-05-12 09:45:00,
2013-05-12 05:50:00,57.6,51.5,29.80,NW,304,0.0,17.0,80,0.00,,,0.01,Wunderground v.1.15,2013-05-12 09:50:00,
2013-05-12 05:55:00,57.5,51.7,29.80,NW,304,0.0,17.0,81,0.00,,,0.01,Wunderground v.1.15,2013-05-12 09:55:00,
2013-05-12 06:05:00,57.2,51.1,29.79,NW,304,0.0,17.0,80,0.00,,,0.01,Wunderground v.1.15,2013-05-12 10:05:00,
2013-05-12 06:10:00,57.1,51.3,29.79,NW,304,0.0,17.0,81,0.00,,,0.01,Wunderground v.1.15,2013-05-12 10:10:00,
2013-05-12 06:15:00,57.0,51.6,29.78,NW,304,0.0,17.0,82,0.00,,,0.01,Wunderground v.1.15,2013-05-12 10:15:00,
2013-05-12 06:20:00,56.8,51.4,29.79,NW,304,0.0,17.0,82,0.00,,,0.01,Wunderground v.1.15,2013-05-12 10:20:00,
2013-05-12 06:30:00,56.6,50.8,29.80,NW,304,0.0,17.0,81,0.00,,,0.01,Wunderground v.1.15,2013-05-12 10:30:00,
2013-05-12 06:35:00,56.6,51.2,29.80,NW,304,0.0,17.0,82,0.00,,,0.01,Wunderground v.1.15,2013-05-12 10:35:00,
2013-05-12 06:40:00,56.5,51.1,29.80,NW,304,0.0,17.0,82,0.00,,,0.01,Wunderground v.1.15,2013-05-12 10:40:00,
2013-05-12 06:45:00,56.3,50.9,29.81,NW,304,0.0,17.0,82,0.00,,,0.01,Wunderground v.1.15,2013-05-12 10:45:00,
2013-05-12 06:50:00,56.2,51.1,29.81,NW,304,0.0,17.0,83,0.00,,,0.01,Wunderground v.1.15,2013-05-12 10:50:00,
2013-05-12 07:00:00,56.0,50.9,29.81,NW,304,0.0,17.0,83,0.00,,,0.01,Wunderground v.1.15,2013-05-12 11:00:00,
2013-05-12 07:05:00,56.0,50.9,29.81,NW,304,0.0,17.0,83,0.00,,,0.01,Wunderground v.1.15,2013-05-12 11:05:00,
2013-05-12 07:10:00,56.0,50.9,29.81,NW,304,0.0,17.0,83,0.00,,,0.01,Wunderground v.1.15,2013-05-12 11:10:00,
2013-05-12 07:15:00,56.2,51.1,29.81,NW,304,0.0,17.0,83,0.00,,,0.01,Wunderground v.1.15,2013-05-12 11:15:00,
2013-05-12 07:20:00,56.4,51.0,29.81,NW,304,0.0,17.0,82,0.00,,,0.01,Wunderground v.1.15,2013-05-12 11:20:00,
2013-05-12 07:30:00,56.9,51.1,29.81,NW,304,1.0,17.0,81,0.00,,,0.01,Wunderground v.1.15,2013-05-12 11:30:00,
2013-05-12 07:35:00,57.3,51.5,29.81,NW,304,0.0,17.0,81,0.00,,,0.01,Wunderground v.1.15,2013-05-12 11:35:00,
2013-05-12 07:40:00,57.5,51.4,29.81,WNW,289,1.0,17.0,80,0.00,,,0.01,Wunderground v.1.15,2013-05-12 11:40:00,
2013-05-12 07:45:00,57.7,51.2,29.81,WNW,288,2.0,17.0,79,0.00,,,0.01,Wunderground v.1.15,2013-05-12 11:45:00,
2013-05-12 07:55:00,58.2,51.4,29.81,WNW,300,2.0,17.0,78,0.00,,,0.01,Wunderground v.1.15,2013-05-12 11:55:00,
2013-05-12 08:00:00,58.4,51.9,29.81,NW,307,3.0,17.0,79,0.00,,,0.01,Wunderground v.1.15,2013-05-12 12:00:00,
2013-05-12 08:05:00,58.6,51.4,29.82,WNW,299,3.0,17.0,77,0.00,,,0.01,Wunderground v.1.15,2013-05-12 12:05:00,
2013-05-12 08:10:00,58.9,52.1,29.82,WNW,298,3.0,17.0,78,0.00,,,0.01,Wunderground v.1.15,2013-05-12 12:10:00,
2013-05-12 08:15:00,59.0,52.1,29.82,WSW,257,4.0,17.0,78,0.00,,,0.01,Wunderground v.1.15,2013-05-12 12:15:00,
2013-05-12 08:25:00,59.2,52.0,29.82,WNW,292,3.0,17.0,77,0.00,,,0.01,Wunderground v.1.15,2013-05-12 12:25:00,
2013-05-12 08:30:00,59.4,51.8,29.82,NW,306,3.0,3.0,76,0.00,,,0.02,Wunderground v.1.15,2013-05-12 12:30:00,
2013-05-12 08:35:00,59.7,51.8,29.83,WNW,300,3.0,17.0,75,0.00,,,0.02,Wunderground v.1.15,2013-05-12 12:35:00,
2013-05-12 08:40:00,59.9,52.0,29.83,NW,307,2.0,17.0,75,0.00,,,0.02,Wunderground v.1.15,2013-05-12 12:40:00,
2013-05-12 08:50:00,59.8,51.1,29.84,NNW,330,5.0,17.0,73,0.00,,,0.02,Wunderground v.1.15,2013-05-12 12:50:00,
2013-05-12 08:55:00,59.7,51.0,29.84,WNW,295,4.0,17.0,73,0.00,,,0.02,Wunderground v.1.15,2013-05-12 12:55:00,
2013-05-12 09:00:00,59.8,51.1,29.84,WNW,303,3.0,3.0,73,0.00,,,0.02,Wunderground v.1.15,2013-05-12 13:00:00,
2013-05-12 09:05:00,60.1,51.4,29.85,WNW,294,1.0,17.0,73,0.00,,,0.02,Wunderground v.1.15,2013-05-12 13:05:00,
2013-05-12 09:10:00,60.1,49.9,29.85,NW,310,2.0,17.0,69,0.00,,,0.02,Wunderground v.1.15,2013-05-12 13:10:00,
2013-05-12 09:20:00,59.3,47.9,29.86,WNW,290,5.0,5.0,66,0.00,,,0.02,Wunderground v.1.15,2013-05-12 13:20:00,
2013-05-12 09:25:00,59.0,46.4,29.86,West,275,7.0,7.0,63,0.00,,,0.02,Wunderground v.1.15,2013-05-12 13:25:00,
2013-05-12 09:30:00,59.0,46.4,29.86,WNW,302,6.0,6.0,63,0.00,,,0.02,Wunderground v.1.15,2013-05-12 13:30:00,
2013-05-12 09:35:00,58.2,45.2,29.86,NW,307,6.0,17.0,62,0.00,,,0.02,Wunderground v.1.15,2013-05-12 13:35:00,
2013-05-12 09:40:00,58.0,45.0,29.86,WNW,297,6.0,17.0,62,0.00,,,0.02,Wunderground v.1.15,2013-05-12 13:40:00,
2013-05-12 09:50:00,58.1,46.0,29.86,NE,52,3.0,17.0,64,0.00,,,0.02,Wunderground v.1.15,2013-05-12 13:50:00,
2013-05-12 09:55:00,58.4,45.8,29.86,WNW,302,1.0,17.0,63,0.00,,,0.02,Wunderground v.1.15,2013-05-12 13:55:00,
2013-05-12 10:00:00,58.6,45.2,29.86,WSW,252,2.0,17.0,61,0.00,,,0.02,Wunderground v.1.15,2013-05-12 14:00:00,
2013-05-12 10:05:00,58.5,43.3,29.86,SW,234,4.0,17.0,57,0.00,,,0.02,Wunderground v.1.15,2013-05-12 14:05:00,
2013-05-12 10:15:00,58.6,43.4,29.87,WNW,302,6.0,17.0,57,0.00,,,0.02,Wunderground v.1.15,2013-05-12 14:15:00,
2013-05-12 10:20:00,58.8,43.1,29.87,WSW,238,5.0,17.0,56,0.00,,,0.02,Wunderground v.1.15,2013-05-12 14:20:00,
2013-05-12 10:25:00,59.0,43.8,29.87,NW,310,5.0,17.0,57,0.00,,,0.02,Wunderground v.1.15,2013-05-12 14:25:00,
2013-05-12 10:30:00,59.0,43.3,29.87,West,263,4.0,17.0,56,0.00,,,0.02,Wunderground v.1.15,2013-05-12 14:30:00,
2013-05-12 10:40:00,58.6,42.9,29.86,NW,307,7.0,7.0,56,0.00,,,0.02,Wunderground v.1.15,2013-05-12 14:40:00,
2013-05-12 10:45:00,58.5,43.3,29.87,NW,315,8.0,8.0,57,0.00,,,0.02,Wunderground v.1.15,2013-05-12 14:45:00,
2013-05-12 10:50:00,59.0,42.8,29.87,NW,319,7.0,7.0,55,0.00,,,0.02,Wunderground v.1.15,2013-05-12 14:50:00,
2013-05-12 10:55:00,59.2,42.6,29.87,West,259,7.0,19.0,54,0.00,,,0.02,Wunderground v.1.15,2013-05-12 14:55:00,
2013-05-12 11:00:00,59.4,41.3,29.87,WNW,282,8.0,17.0,51,0.00,,,0.02,Wunderground v.1.15,2013-05-12 15:00:00,
2013-05-12 11:10:00,59.6,41.4,29.87,WSW,252,8.0,17.0,51,0.00,,,0.02,Wunderground v.1.15,2013-05-12 15:10:00,
2013-05-12 11:15:00,59.7,41.5,29.87,NW,315,8.0,17.0,51,0.00,,,0.02,Wunderground v.1.15,2013-05-12 15:15:00,
2013-05-12 11:20:00,59.8,42.6,29.87,West,281,7.0,7.0,53,0.00,,,0.02,Wunderground v.1.15,2013-05-12 15:20:00,
2013-05-12 11:25:00,60.0,41.8,29.87,NNW,331,7.0,12.0,51,0.00,,,0.02,Wunderground v.1.15,2013-05-12 15:25:00,
2013-05-12 11:30:00,59.6,40.9,29.87,NNW,340,9.0,17.0,50,0.00,,,0.02,Wunderground v.1.15,2013-05-12 15:30:00,
2013-05-12 11:40:00,60.2,43.5,29.87,WNW,300,6.0,6.0,54,0.00,,,0.02,Wunderground v.1.15,2013-05-12 15:40:00,
2013-05-12 11:45:00,60.4,43.2,29.87,NW,306,5.0,7.0,53,0.00,,,0.02,Wunderground v.1.15,2013-05-12 15:45:00,
2013-05-12 11:50:00,60.5,43.3,29.87,NNW,329,6.0,17.0,53,0.00,,,0.02,Wunderground v.1.15,2013-05-12 15:50:00,
2013-05-12 11:55:00,59.7,42.5,29.87,NNW,338,7.0,17.0,53,0.00,,,0.02,Wunderground v.1.15,2013-05-12 15:55:00,
2013-05-12 12:00:00,59.5,42.8,29.87,NW,307,7.0,7.0,54,0.00,,,0.02,Wunderground v.1.15,2013-05-12 16:00:00,
2013-05-12 12:10:00,60.5,42.8,29.87,NW,304,5.0,5.0,52,0.00,,,0.02,Wunderground v.1.15,2013-05-12 16:10:00,
2013-05-12 12:15:00,60.3,42.1,29.88,NNW,334,7.0,7.0,51,0.00,,,0.02,Wunderground v.1.15,2013-05-12 16:15:00,
2013-05-12 12:20:00,59.9,41.2,29.88,WNW,291,7.0,17.0,50,0.00,,,0.02,Wunderground v.1.15,2013-05-12 16:20:00,
2013-05-12 12:25:00,59.9,42.2,29.88,NW,319,7.0,17.0,52,0.00,,,0.02,Wunderground v.1.15,2013-05-12 16:25:00,
2013-05-12 12:35:00,60.4,41.1,29.87,NW,312,6.0,17.0,49,0.00,,,0.02,Wunderground v.1.15,2013-05-12 16:35:00,
2013-05-12 12:40:00,60.7,41.4,29.87,WNW,295,5.0,5.0,49,0.00,,,0.02,Wunderground v.1.15,2013-05-12 16:40:00,
2013-05-12 12:45:00,61.0,41.7,29.88,NNW,331,5.0,17.0,49,0.00,,,0.02,Wunderground v.1.15,2013-05-12 16:45:00,
2013-05-12 12:50:00,61.4,41.0,29.88,WSW,250,5.0,17.0,47,0.00,,,0.02,Wunderground v.1.15,2013-05-12 16:50:00,
2013-05-12 13:00:00,60.4,37.8,29.88,NW,326,8.0,17.0,43,0.00,,,0.02,Wunderground v.1.15,2013-05-12 17:00:00,
2013-05-12 13:05:00,60.6,38.0,29.88,NW,322,7.0,17.0,43,0.00,,,0.02,Wunderground v.1.15,2013-05-12 17:05:00,
2013-05-12 13:10:00,60.4,37.8,29.88,NW,310,7.0,17.0,43,0.00,,,0.02,Wunderground v.1.15,2013-05-12 17:10:00,
2013-05-12 13:15:00,60.7,37.5,29.88,WNW,302,7.0,17.0,42,0.00,,,0.02,Wunderground v.1.15,2013-05-12 17:15:00,
2013-05-12 13:20:00,60.8,36.9,29.88,NW,312,7.0,17.0,41,0.00,,,0.02,Wunderground v.1.15,2013-05-12 17:20:00,
2013-05-12 13:30:00,60.8,35.0,29.89,NW,310,7.0,7.0,38,0.00,,,0.02,Wunderground v.1.15,2013-05-12 17:30:00,
2013-05-12 13:35:00,60.4,35.9,29.89,NW,306,8.0,8.0,40,0.00,,,0.02,Wunderground v.1.15,2013-05-12 17:35:00,
2013-05-12 13:40:00,60.8,36.3,29.89,West,277,8.0,8.0,40,0.00,,,0.02,Wunderground v.1.15,2013-05-12 17:40:00,
2013-05-12 13:45:00,61.4,37.5,29.89,WNW,290,5.0,17.0,41,0.00,,,0.02,Wunderground v.1.15,2013-05-12 17:45:00,
2013-05-12 13:50:00,61.0,36.5,29.89,West,271,5.0,17.0,40,0.00,,,0.02,Wunderground v.1.15,2013-05-12 17:50:00,
2013-05-12 14:00:00,62.2,37.6,29.89,West,261,4.0,17.0,40,0.00,,,0.02,Wunderground v.1.15,2013-05-12 18:00:00,
2013-05-12 14:05:00,62.5,36.5,29.89,NW,319,5.0,17.0,38,0.00,,,0.02,Wunderground v.1.15,2013-05-12 18:05:00,
2013-05-12 14:10:00,62.3,36.4,29.89,NNW,328,7.0,7.0,38,0.00,,,0.02,Wunderground v.1.15,2013-05-12 18:10:00,
2013-05-12 14:15:00,61.9,35.3,29.89,WNW,283,6.0,17.0,37,0.00,,,0.02,Wunderground v.1.15,2013-05-12 18:15:00,
2013-05-12 14:20:00,62.0,35.4,29.89,WNW,290,5.0,17.0,37,0.00,,,0.02,Wunderground v.1.15,2013-05-12 18:20:00,
2013-05-12 14:30:00,62.6,37.3,29.89,NW,310,4.0,17.0,39,0.00,,,0.02,Wunderground v.1.15,2013-05-12 18:30:00,
2013-05-12 14:35:00,62.4,34.4,29.89,NW,325,5.0,17.0,35,0.00,,,0.02,Wunderground v.1.15,2013-05-12 18:35:00,
2013-05-12 14:40:00,61.9,33.9,29.89,NNW,331,8.0,8.0,35,0.00,,,0.02,Wunderground v.1.15,2013-05-12 18:40:00,
2013-05-12 14:50:00,62.7,36.0,29.89,WNW,288,5.0,17.0,37,0.00,,,0.02,Wunderground v.1.15,2013-05-12 18:50:00,
2013-05-12 14:55:00,62.7,37.4,29.89,NNW,340,5.0,17.0,39,0.00,,,0.02,Wunderground v.1.15,2013-05-12 18:55:00,
2013-05-12 15:00:00,62.3,35.0,29.89,NW,309,8.0,8.0,36,0.00,,,0.02,Wunderground v.1.15,2013-05-12 19:00:00,
2013-05-12 15:05:00,62.4,35.8,29.89,SW,227,6.0,9.0,37,0.00,,,0.02,Wunderground v.1.15,2013-05-12 19:05:00,
2013-05-12 15:10:00,63.0,37.0,29.89,WNW,303,3.0,3.0,38,0.00,,,0.02,Wunderground v.1.15,2013-05-12 19:10:00,
2013-05-12 15:20:00,62.9,35.5,29.89,West,268,7.0,17.0,36,0.00,,,0.02,Wunderground v.1.15,2013-05-12 19:20:00,
2013-05-12 15:25:00,63.4,37.3,29.89,WNW,295,6.0,17.0,38,0.00,,,0.02,Wunderground v.1.15,2013-05-12 19:25:00,
2013-05-12 15:30:00,63.9,36.4,29.89,WNW,300,5.0,17.0,36,0.00,,,0.02,Wunderground v.1.15,2013-05-12 19:30:00,
2013-05-12 15:35:00,63.6,35.4,29.89,WNW,283,5.0,17.0,35,0.00,,,0.02,Wunderground v.1.15,2013-05-12 19:35:00,
2013-05-12 15:40:00,63.1,35.7,29.89,NW,308,5.0,17.0,36,0.00,,,0.02,Wunderground v.1.15,2013-05-12 19:40:00,
2013-05-12 15:50:00,63.7,37.6,29.89,West,272,5.0,17.0,38,0.00,,,0.02,Wunderground v.1.15,2013-05-12 19:50:00,
2013-05-12 15:55:00,63.7,36.9,29.89,West,267,6.0,17.0,37,0.00,,,0.02,Wunderground v.1.15,2013-05-12 19:55:00,
2013-05-12 16:00:00,63.7,37.6,29.89,West,279,6.0,6.0,38,0.00,,,0.02,Wunderground v.1.15,2013-05-12 20:00:00,
2013-05-12 16:05:00,63.7,36.9,29.89,NW,316,5.0,11.0,37,0.00,,,0.02,Wunderground v.1.15,2013-05-12 20:05:00,
2013-05-12 16:10:00,63.1,36.4,29.89,WNW,303,6.0,17.0,37,0.00,,,0.02,Wunderground v.1.15,2013-05-12 20:10:00,
2013-05-12 16:20:00,62.4,37.1,29.89,NW,311,7.0,7.0,39,0.00,,,0.02,Wunderground v.1.15,2013-05-12 20:20:00,
2013-05-12 16:25:00,62.8,36.8,29.90,West,260,6.0,17.0,38,0.00,,,0.02,Wunderground v.1.15,2013-05-12 20:25:00,
2013-05-12 16:30:00,63.4,37.3,29.90,West,273,5.0,17.0,38,0.00,,,0.02,Wunderground v.1.15,2013-05-12 20:30:00,
2013-05-12 16:35:00,63.3,35.9,29.90,NW,322,5.0,17.0,36,0.00,,,0.02,Wunderground v.1.15,2013-05-12 20:35:00,
2013-05-12 16:40:00,63.3,37.9,29.90,WNW,298,5.0,5.0,39,0.00,,,0.02,Wunderground v.1.15,2013-05-12 20:40:00,
2013-05-12 16:50:00,63.5,37.4,29.90,WSW,250,5.0,17.0,38,0.00,,,0.02,Wunderground v.1.15,2013-05-12 20:50:00,
2013-05-12 16:55:00,63.1,36.4,29.90,NW,306,7.0,17.0,37,0.00,,,0.02,Wunderground v.1.15,2013-05-12 20:55:00,
2013-05-12 17:00:00,63.3,37.2,29.90,WNW,291,6.0,17.0,38,0.00,,,0.02,Wunderground v.1.15,2013-05-12 21:00:00,
2013-05-12 17:10:00,63.2,37.8,29.91,WNW,299,4.0,17.0,39,0.00,,,0.02,Wunderground v.1.15,2013-05-12 21:10:00,
2013-05-12 17:15:00,63.6,38.8,29.90,WNW,300,4.0,17.0,40,0.00,,,0.02,Wunderground v.1.15,2013-05-12 21:15:00,
2013-05-12 17:20:00,64.1,38.6,29.90,NNW,327,3.0,17.0,39,0.00,,,0.02,Wunderground v.1.15,2013-05-12 21:20:00,
2013-05-12 17:25:00,63.6,36.1,29.90,WNW,302,4.0,17.0,36,0.00,,,0.02,Wunderground v.1.15,2013-05-12 21:25:00,
2013-05-12 17:30:00,62.7,36.7,29.90,NW,319,5.0,5.0,38,0.00,,,0.02,Wunderground v.1.15,2013-05-12 21:30:00,
2013-05-12 17:40:00,62.9,36.9,29.90,WNW,290,4.0,4.0,38,0.00,,,0.02,Wunderground v.1.15,2013-05-12 21:40:00,
2013-05-12 17:45:00,62.0,36.1,29.91,NW,321,6.0,6.0,38,0.00,,,0.02,Wunderground v.1.15,2013-05-12 21:45:00,
2013-05-12 17:50:00,61.8,35.9,29.91,NW,306,6.0,17.0,38,0.00,,,0.02,Wunderground v.1.15,2013-05-12 21:50:00,
2013-05-12 17:55:00,61.6,35.7,29.91,WNW,298,6.0,17.0,38,0.00,,,0.02,Wunderground v.1.15,2013-05-12 21:55:00,
2013-05-12 18:00:00,61.4,36.8,29.91,WNW,301,7.0,7.0,40,0.00,,,0.02,Wunderground v.1.15,2013-05-12 22:00:00,
2013-05-12 18:10:00,61.7,36.5,29.92,WNW,300,5.0,17.0,39,0.00,,,0.02,Wunderground v.1.15,2013-05-12 22:10:00,
2013-05-12 18:15:00,61.8,37.2,29.92,WNW,290,6.0,17.0,40,0.00,,,0.02,Wunderground v.1.15,2013-05-12 22:15:00,
2013-05-12 18:20:00,61.8,36.6,29.92,NNW,327,4.0,17.0,39,0.00,,,0.02,Wunderground v.1.15,2013-05-12 22:20:00,
2013-05-12 18:25:00,61.1,35.9,29.92,WNW,303,6.0,17.0,39,0.00,,,0.02,Wunderground v.1.15,2013-05-12 22:25:00,
2013-05-12 18:35:00,61.1,35.9,29.93,WNW,302,5.0,17.0,39,0.00,,,0.02,Wunderground v.1.15,2013-05-12 22:35:00,
2013-05-12 18:40:00,60.8,35.0,29.93,NW,308,5.0,17.0,38,0.00,,,0.02,Wunderground v.1.15,2013-05-12 22:40:00,
2013-05-12 18:45:00,60.5,34.7,29.93,WNW,303,6.0,17.0,38,0.00,,,0.02,Wunderground v.1.15,2013-05-12 22:45:00,
2013-05-12 18:50:00,60.4,35.3,29.93,NW,306,5.0,5.0,39,0.00,,,0.02,Wunderground v.1.15,2013-05-12 22:50:00,
2013-05-12 19:00:00,60.6,35.5,29.93,WNW,302,3.0,17.0,39,0.00,,,0.02,Wunderground v.1.15,2013-05-12 23:00:00,
2013-05-12 19:05:00,60.3,35.9,29.93,NW,317,4.0,17.0,40,0.00,,,0.02,Wunderground v.1.15,2013-05-12 23:05:00,
2013-05-12 19:10:00,60.0,35.0,29.93,NW,315,5.0,5.0,39,0.00,,,0.02,Wunderground v.1.15,2013-05-12 23:10:00,
2013-05-12 19:15:00,59.4,35.7,29.93,WNW,302,4.0,17.0,41,0.00,,,0.02,Wunderground v.1.15,2013-05-12 23:15:00,
2013-05-12 19:20:00,59.0,35.3,29.94,WNW,303,3.0,3.0,41,0.00,,,0.02,Wunderground v.1.15,2013-05-12 23:20:00,
2013-05-12 19:30:00,58.6,34.3,29.94,NW,323,7.0,17.0,40,0.00,,,0.02,Wunderground v.1.15,2013-05-12 23:30:00,
2013-05-12 19:35:00,58.4,34.8,29.94,WNW,303,7.0,17.0,41,0.00,,,0.02,Wunderground v.1.15,2013-05-12 23:35:00,
2013-05-12 19:40:00,58.3,34.7,29.95,WNW,303,5.0,5.0,41,0.00,,,0.02,Wunderground v.1.15,2013-05-12 23:40:00,
2013-05-12 19:45:00,58.1,35.1,29.95,NW,314,4.0,17.0,42,0.00,,,0.02,Wunderground v.1.15,2013-05-12 23:45:00,
2013-05-12 19:50:00,57.9,34.9,29.95,WNW,298,3.0,17.0,42,0.00,,,0.02,Wunderground v.1.15,2013-05-12 23:50:00,
2013-05-12 20:00:00,57.5,35.2,29.96,WNW,290,2.0,2.0,43,0.00,,,0.02,Wunderground v.1.15,2013-05-13 00:00:00,
2013-05-12 20:05:00,57.3,35.0,29.96,WNW,302,3.0,3.0,43,0.00,,,0.02,Wunderground v.1.15,2013-05-13 00:05:00,
2013-05-12 20:10:00,57.2,35.5,29.97,West,279,2.0,2.0,44,0.00,,,0.02,Wunderground v.1.15,2013-05-13 00:10:00,
2013-05-12 20:15:00,57.0,35.3,29.97,WNW,290,2.0,3.0,44,0.00,,,0.02,Wunderground v.1.15,2013-05-13 00:15:00,
2013-05-12 20:20:00,56.8,35.1,29.97,WNW,300,2.0,17.0,44,0.00,,,0.02,Wunderground v.1.15,2013-05-13 00:20:00,
2013-05-12 20:30:00,56.5,34.8,29.98,WNW,291,2.0,2.0,44,0.00,,,0.02,Wunderground v.1.15,2013-05-13 00:30:00,
2013-05-12 20:35:00,56.3,35.2,29.98,WNW,291,1.0,17.0,45,0.00,,,0.02,Wunderground v.1.15,2013-05-13 00:35:00,
2013-05-12 20:40:00,56.2,35.1,29.99,WNW,291,0.0,17.0,45,0.00,,,0.02,Wunderground v.1.15,2013-05-13 00:40:00,
2013-05-12 20:45:00,55.9,34.8,29.99,WNW,296,1.0,17.0,45,0.00,,,0.02,Wunderground v.1.15,2013-05-13 00:45:00,
2013-05-12 20:55:00,55.5,35.0,29.99,WNW,297,0.0,17.0,46,0.00,,,0.02,Wunderground v.1.15,2013-05-13 00:55:00,
2013-05-12 21:00:00,55.4,34.9,29.99,WNW,303,1.0,17.0,46,0.00,,,0.02,Wunderground v.1.15,2013-05-13 01:00:00,
2013-05-12 21:05:00,55.4,34.9,30.00,NW,304,1.0,17.0,46,0.00,,,0.02,Wunderground v.1.15,2013-05-13 01:05:00,
2013-05-12 21:10:00,55.3,34.9,30.00,NW,304,1.0,17.0,46,0.00,,,0.02,Wunderground v.1.15,2013-05-13 01:10:00,
2013-05-12 21:20:00,55.2,34.8,30.00,WNW,294,2.0,2.0,46,0.00,,,0.02,Wunderground v.1.15,2013-05-13 01:20:00,
2013-05-12 21:25:00,55.1,34.1,30.01,WNW,299,1.0,17.0,45,0.00,,,0.02,Wunderground v.1.15,2013-05-13 01:25:00,
2013-05-12 21:30:00,55.0,34.0,30.01,WNW,288,1.0,1.0,45,0.00,,,0.02,Wunderground v.1.15,2013-05-13 01:30:00,
2013-05-12 21:35:00,55.0,34.0,30.01,West,265,1.0,4.0,45,0.00,,,0.02,Wunderground v.1.15,2013-05-13 01:35:00,
2013-05-12 21:40:00,54.9,33.9,30.01,West,264,1.0,1.0,45,0.00,,,0.02,Wunderground v.1.15,2013-05-13 01:40:00,
2013-05-12 21:50:00,54.7,33.8,30.02,West,262,1.0,17.0,45,0.00,,,0.02,Wunderground v.1.15,2013-05-13 01:50:00,
2013-05-12 21:55:00,54.5,33.6,30.02,West,263,0.0,17.0,45,0.00,,,0.02,Wunderground v.1.15,2013-05-13 01:55:00,
2013-05-12 22:00:00,54.4,33.5,30.02,West,264,0.0,17.0,45,0.00,,,0.02,Wunderground v.1.15,2013-05-13 02:00:00,
2013-05-12 22:05:00,54.2,33.9,30.03,West,264,0.0,17.0,46,0.00,,,0.02,Wunderground v.1.15,2013-05-13 02:05:00,
2013-05-12 22:10:00,54.1,33.8,30.03,West,263,0.0,17.0,46,0.00,,,0.02,Wunderground v.1.15,2013-05-13 02:10:00,
2013-05-12 22:20:00,53.8,34.0,30.03,West,264,0.0,17.0,47,0.00,,,0.02,Wunderground v.1.15,2013-05-13 02:20:00,
2013-05-12 22:25:00,53.7,33.9,30.04,West,264,0.0,17.0,47,0.00,,,0.02,Wunderground v.1.15,2013-05-13 02:25:00,
2013-05-12 22:30:00,53.5,33.7,30.04,West,264,0.0,17.0,47,0.00,,,0.02,Wunderground v.1.15,2013-05-13 02:30:00,
2013-05-12 22:35:00,53.3,33.6,30.04,West,264,0.0,17.0,47,0.00,,,0.02,Wunderground v.1.15,2013-05-13 02:35:00,
2013-05-12 22:40:00,53.3,33.6,30.05,West,265,0.0,17.0,47,0.00,,,0.02,Wunderground v.1.15,2013-05-13 02:40:00,
2013-05-12 22:50:00,53.2,34.0,30.05,West,267,1.0,1.0,48,0.00,,,0.02,Wunderground v.1.15,2013-05-13 02:50:00,
2013-05-12 22:55:00,53.0,33.8,30.05,West,271,1.0,17.0,48,0.00,,,0.02,Wunderground v.1.15,2013-05-13 02:55:00,
2013-05-12 23:00:00,52.8,33.6,30.05,West,271,1.0,1.0,48,0.00,,,0.02,Wunderground v.1.15,2013-05-13 03:00:00,
2013-05-12 23:05:00,52.7,33.5,30.05,West,274,1.0,17.0,48,0.00,,,0.02,Wunderground v.1.15,2013-05-13 03:05:00,
2013-05-12 23:15:00,52.4,33.3,30.05,West,273,1.0,17.0,48,0.00,,,0.02,Wunderground v.1.15,2013-05-13 03:15:00,
2013-05-12 23:20:00,52.4,33.3,30.05,WNW,286,1.0,1.0,48,0.00,,,0.02,Wunderground v.1.15,2013-05-13 03:20:00,
2013-05-12 23:25:00,52.2,33.6,30.05,NW,306,1.0,17.0,49,0.00,,,0.02,Wunderground v.1.15,2013-05-13 03:25:00,
2013-05-12 23:30:00,52.1,33.5,30.05,NW,304,1.0,17.0,49,0.00,,,0.02,Wunderground v.1.15,2013-05-13 03:30:00,
2013-05-12 23:40:00,51.9,33.3,30.05,WNW,301,1.0,1.0,49,0.00,,,0.02,Wunderground v.1.15,2013-05-13 03:40:00,
2013-05-12 23:45:00,51.8,33.2,30.05,WNW,300,0.0,17.0,49,0.00,,,0.02,Wunderground v.1.15,2013-05-13 03:45:00,
2013-05-12 23:50:00,51.7,33.1,30.05,WNW,288,0.0,17.0,49,0.00,,,0.02,Wunderground v.1.15,2013-05-13 03:50:00,
2013-05-12 23:55:00,51.6,33.6,30.06,WNW,288,1.0,17.0,50,0.00,,,0.02,Wunderground v.1.15,2013-05-13 03:55:00,